This is the latest recevied weather packets stored in our database for station/object AD5L. If no packets are shown the sender has not sent any weather packets the latest 10 day(s).
| Time | Temp. | Humidity | Pressure | Rain* | Wind** | Luminosity | Snow |
|---|---|---|---|---|---|---|---|
| 1777644803 | 13.89° C | 99% | 1015.3 hPa | 6.1 mm | - | - | - |
| 1777644215 | 13.89° C | 99% | 1015.2 hPa | 4.83 mm | - | - | - |
| 1777643606 | 13.89° C | 99% | 1015.9 hPa | 3.3 mm | - | - | - |
| 1777643014 | 14.44° C | 99% | 1016.2 hPa | 2.03 mm | - | - | - |
| 1777642405 | 14.44° C | 99% | 1016.1 hPa | 1.02 mm | - | - | - |
| 1777641816 | 14.44° C | 99% | 1014.7 hPa | 0.25 mm | - | - | - |
| 1777641228 | 14.44° C | 98% | 1014.7 hPa | 0 mm | - | - | - |
| 1777640619 | 14.44° C | 99% | 1014.6 hPa | 0 mm | - | - | - |
| 1777640029 | 14.44° C | 98% | 1015.2 hPa | 0.25 mm | - | - | - |
| 1777639411 | 14.44° C | 98% | 1015.1 hPa | 0.25 mm | - | - | - |
| 1777638214 | 14.44° C | 99% | 1014.2 hPa | 1.78 mm | - | - | - |
| 1777637605 | 14.44° C | 99% | 1013.8 hPa | 2.54 mm | - | - | - |
| 1777637016 | 14.44° C | 99% | 1013.5 hPa | 3.05 mm | - | - | - |
| 1777636407 | 14.44° C | 99% | 1013.3 hPa | 3.3 mm | - | - | - |
| 1777635814 | 14.44° C | 99% | 1013 hPa | 3.81 mm | - | - | - |
| 1777635205 | 14.44° C | 99% | 1012.7 hPa | 4.06 mm | - | - | - |
| 1777634616 | 14.44° C | 99% | 1012.9 hPa | 3.56 mm | - | - | - |
| 1777634008 | 14.44° C | 99% | 1014.1 hPa | 2.79 mm | - | - | - |
| 1777633417 | 14.44° C | 99% | 1014.2 hPa | 2.54 mm | - | - | - |
| 1777632809 | 14.44° C | 99% | 1013.5 hPa | 2.03 mm | - | - | - |
| 1777632220 | 14.44° C | 99% | 1013.9 hPa | 1.52 mm | - | - | - |
| 1777631611 | 14.44° C | 99% | 1013.9 hPa | 0.76 mm | - | - | - |
| 1777631022 | 14.44° C | 98% | 1014.4 hPa | 0.25 mm | - | - | - |
| 1777630413 | 14.44° C | 98% | 1014.3 hPa | 0.51 mm | - | - | - |
| 1777629824 | 14.44° C | 98% | 1013.3 hPa | 0.25 mm | - | - | - |
* Rain latest hour (hover to see other rain measurements)
** Current wind speed in m/s (hover to see current wind gust speed)